| time (UTC) | temp C | wind direction | speed KPH | gust KPH | rain 1hr cm | rain 24hr cm | rain mn cm | humidity % | barometer mb |
| 20260506045127 | 24 | 162 | 9.7 | 22.5 | 0.00 | 0.00 | 0.00 | 90 | 1042.7 |
| 20260506044625 | 24 | 220 | 17.7 | 32.2 | 0.00 | 0.00 | 0.00 | 90 | 1042.9 |
| 20260506044122 | 24 | 167 | 8.0 | 17.7 | 0.00 | 0.00 | 0.00 | 90 | 1042.8 |
| 20260506043619 | 24 | 186 | 17.7 | 25.7 | 0.00 | 0.00 | 0.00 | 89 | 1042.7 |
| 20260506043117 | 24 | 172 | 27.4 | 29.0 | 0.00 | 0.00 | 0.00 | 90 | 1042.9 |
| 20260506042616 | 24 | 150 | 17.7 | 20.9 | 0.00 | 0.00 | 0.00 | 90 | 1042.7 |
| 20260506042114 | 24 | 178 | 4.8 | 11.3 | 0.00 | 0.00 | 0.00 | 90 | 1042.6 |
| 20260506041612 | 24 | 180 | 0.0 | 14.5 | 0.00 | 0.00 | 0.00 | 90 | 1042.6 |
| 20260506041108 | 24 | 180 | 9.7 | 9.7 | 0.00 | 0.00 | 0.00 | 90 | 1042.4 |
| 20260506040606 | 24 | 150 | 9.7 | 12.9 | 0.00 | 0.00 | 0.00 | 90 | 1042.7 |
| 20260506035559 | 24 | 209 | 4.8 | 8.0 | 0.00 | 0.00 | 0.00 | 89 | 1042.4 |
| 20260506035056 | 24 | 220 | 4.8 | 14.5 | 0.00 | 0.00 | 0.00 | 89 | 1042.2 |
| 20260506034553 | 25 | 155 | 6.4 | 19.3 | 0.00 | 0.00 | 0.00 | 89 | 1042.2 |
| 20260506034050 | 25 | 139 | 11.3 | 19.3 | 0.00 | 0.00 | 0.00 | 88 | 1042.2 |
| 20260506033548 | 25 | 165 | 19.3 | 19.3 | 0.00 | 0.00 | 0.00 | 88 | 1042.3 |
| 20260506033044 | 25 | 180 | 8.0 | 14.5 | 0.00 | 0.00 | 0.00 | 87 | 1042.2 |
| 20260506032542 | 25 | 180 | 8.0 | 24.1 | 0.00 | 0.00 | 0.00 | 87 | 1042.4 |
| 20260506032038 | 25 | 204 | 6.4 | 19.3 | 0.00 | 0.00 | 0.00 | 87 | 1042.3 |
| 20260506031536 | 25 | 144 | 4.8 | 12.9 | 0.00 | 0.00 | 0.00 | 87 | 1042.2 |
| 20260506031033 | 25 | 202 | 3.2 | 12.9 | 0.00 | 0.00 | 0.00 | 86 | 1041.9 |
| 20260506030531 | 25 | 166 | 4.8 | 12.9 | 0.00 | 0.00 | 0.00 | 86 | 1041.7 |
| 20260506030028 | 25 | 202 | 6.4 | 11.3 | 0.00 | 0.00 | 0.00 | 86 | 1041.8 |
| 20260506025525 | 25 | 158 | 8.0 | 8.0 | 0.00 | 0.00 | 0.00 | 86 | 1041.8 |
| 20260506025021 | 25 | 172 | 3.2 | 11.3 | 0.00 | 0.00 | 0.00 | 85 | 1042.0 |
| 20260506024518 | 25 | 157 | 3.2 | 8.0 | 0.00 | 0.00 | 0.00 | 85 | 1041.8 |
| 20260506024014 | 25 | 161 | 3.2 | 9.7 | 0.00 | 0.00 | 0.00 | 85 | 1041.7 |
| 20260506023510 | 25 | 199 | 3.2 | 4.8 | 0.00 | 0.00 | 0.00 | 86 | 1041.7 |
| 20260506023008 | 25 | 150 | 4.8 | 8.0 | 0.00 | 0.00 | 0.00 | 86 | 1041.3 |
| 20260506012627 | 26 | 165 | 3.2 | 9.7 | 0.00 | 0.00 | 0.00 | 80 | 1040.8 |
| 20260506012124 | 26 | 165 | 3.2 | 9.7 | 0.00 | 0.00 | 0.00 | 80 | 1040.8 |
| 20260506011622 | 26 | 165 | 3.2 | 9.7 | 0.00 | 0.00 | 0.00 | 80 | 1040.8 |
| 20260506011118 | 26 | 172 | 3.2 | 14.5 | 0.00 | 0.00 | 0.00 | 79 | 1040.5 |
| 20260506010617 | 26 | 170 | 3.2 | 8.0 | 0.00 | 0.00 | 0.00 | 79 | 1040.6 |
| 20260506010113 | 26 | 169 | 8.0 | 11.3 | 0.00 | 0.00 | 0.00 | 78 | 1040.5 |
| 20260506005611 | 27 | 180 | 12.9 | 16.1 | 0.00 | 0.00 | 0.00 | 77 | 1040.5 |
| 20260506005107 | 27 | 162 | 11.3 | 11.3 | 0.00 | 0.00 | 0.00 | 77 | 1040.6 |
| 20260506004604 | 27 | 199 | 9.7 | 12.9 | 0.00 | 0.00 | 0.00 | 76 | 1040.9 |
| 20260506004100 | 27 | 226 | 8.0 | 14.5 | 0.00 | 0.00 | 0.00 | 75 | 1040.6 |
| 20260506003557 | 27 | 201 | 9.7 | 12.9 | 0.00 | 0.00 | 0.00 | 75 | 1040.8 |
| 20260506003053 | 27 | 228 | 6.4 | 9.7 | 0.00 | 0.00 | 0.00 | 75 | 1040.5 |
| 20260506002549 | 27 | 132 | 0.0 | 16.1 | 0.00 | 0.00 | 0.00 | 75 | 1040.6 |
| 20260506002045 | 27 | 156 | 8.0 | 14.5 | 0.00 | 0.00 | 0.00 | 75 | 1040.6 |
| 20260506001541 | 27 | 246 | 4.8 | 11.3 | 0.00 | 0.00 | 0.00 | 75 | 1040.8 |
| 20260506001039 | 27 | 188 | 8.0 | 9.7 | 0.00 | 0.00 | 0.00 | 74 | 1040.9 |
| 20260506000536 | 27 | 169 | 6.4 | 14.5 | 0.00 | 0.00 | 0.00 | 74 | 1040.5 |
| 20260506000034 | 27 | 226 | 11.3 | 16.1 | 0.00 | 0.00 | 0.00 | 73 | 1040.8 |
| 20260505235531 | 27 | 168 | 9.7 | 16.1 | 0.00 | 0.00 | 0.00 | 73 | 1040.5 |
| 20260505235028 | 27 | 169 | 9.7 | 17.7 | 0.00 | 0.00 | 0.00 | 73 | 1040.6 |
| 20260505234525 | 27 | 243 | 3.2 | 11.3 | 0.00 | 0.00 | 0.00 | 73 | 1040.5 |
| 20260505234022 | 27 | 209 | 8.0 | 22.5 | 0.00 | 0.00 | 0.00 | 73 | 1040.3 |
| 20260505233519 | 28 | 197 | 8.0 | 14.5 | 0.00 | 0.00 | 0.00 | 73 | 1040.3 |
| 20260505233017 | 27 | 216 | 4.8 | 22.5 | 0.00 | 0.00 | 0.00 | 73 | 1040.2 |
| 20260505232514 | 28 | 229 | 3.2 | 24.1 | 0.00 | 0.00 | 0.00 | 72 | 1040.2 |
| 20260505232012 | 28 | 202 | 12.9 | 22.5 | 0.00 | 0.00 | 0.00 | 72 | 1040.4 |
| 20260505231508 | 28 | 162 | 11.3 | 24.1 | 0.00 | 0.00 | 0.00 | 71 | 1040.1 |
| 20260505231007 | 28 | 163 | 8.0 | 17.7 | 0.00 | 0.00 | 0.00 | 71 | 1040.5 |
| 20260505230504 | 28 | 171 | 11.3 | 14.5 | 0.00 | 0.00 | 0.00 | 72 | 1040.3 |
| 20260505230000 | 28 | 158 | 11.3 | 25.7 | 0.00 | 0.00 | 0.00 | 72 | 1040.2 |
| 20260505225457 | 28 | 163 | 6.4 | 17.7 | 0.00 | 0.00 | 0.00 | 71 | 1040.1 |
| 20260505224953 | 28 | 233 | 6.4 | 17.7 | 0.00 | 0.00 | 0.00 | 71 | 1040.1 |
| 20260505224450 | 28 | 219 | 11.3 | 20.9 | 0.00 | 0.00 | 0.00 | 70 | 1040.2 |
| 20260505223948 | 28 | 223 | 9.7 | 20.9 | 0.00 | 0.00 | 0.00 | 70 | 1040.0 |
| 20260505223444 | 28 | 202 | 4.8 | 11.3 | 0.00 | 0.00 | 0.00 | 71 | 1040.2 |
| 20260505222941 | 28 | 239 | 11.3 | 14.5 | 0.00 | 0.00 | 0.00 | 71 | 1040.1 |
| 20260505222437 | 28 | 201 | 9.7 | 20.9 | 0.00 | 0.00 | 0.00 | 70 | 1040.2 |
| 20260505221933 | 28 | 238 | 8.0 | 14.5 | 0.00 | 0.00 | 0.00 | 70 | 1040.0 |
| 20260505221431 | 28 | 207 | 19.3 | 19.3 | 0.00 | 0.00 | 0.00 | 70 | 1040.0 |
| 20260505220928 | 28 | 132 | 3.2 | 20.9 | 0.00 | 0.00 | 0.00 | 71 | 1040.1 |
| 20260505220425 | 28 | 234 | 19.3 | 24.1 | 0.00 | 0.00 | 0.00 | 71 | 1040.1 |
| 20260505215922 | 28 | 180 | 19.3 | 25.7 | 0.00 | 0.00 | 0.00 | 70 | 1040.3 |
| 20260505215420 | 28 | 159 | 8.0 | 17.7 | 0.00 | 0.00 | 0.00 | 70 | 1040.1 |
| 20260505214918 | 28 | 187 | 11.3 | 32.2 | 0.00 | 0.00 | 0.00 | 70 | 1040.2 |
| 20260505214415 | 28 | 194 | 16.1 | 22.5 | 0.00 | 0.00 | 0.00 | 70 | 1040.4 |
| 20260505213912 | 29 | 190 | 8.0 | 16.1 | 0.00 | 0.00 | 0.00 | 70 | 1040.3 |
| 20260505213410 | 29 | 185 | 17.7 | 22.5 | 0.00 | 0.00 | 0.00 | 70 | 1040.5 |
| 20260505212906 | 28 | 183 | 8.0 | 29.0 | 0.00 | 0.00 | 0.00 | 70 | 1040.6 |
| 20260505212403 | 28 | 208 | 9.7 | 19.3 | 0.00 | 0.00 | 0.00 | 70 | 1040.4 |
| 20260505211859 | 29 | 196 | 19.3 | 24.1 | 0.00 | 0.00 | 0.00 | 70 | 1040.5 |
| 20260505211357 | 29 | 204 | 14.5 | 20.9 | 0.00 | 0.00 | 0.00 | 70 | 1040.9 |
| 20260505210853 | 28 | 188 | 14.5 | 29.0 | 0.00 | 0.00 | 0.00 | 71 | 1040.8 |
| 20260505210350 | 29 | 226 | 6.4 | 22.5 | 0.00 | 0.00 | 0.00 | 70 | 1041.0 |
| 20260505205847 | 29 | 155 | 9.7 | 25.7 | 0.00 | 0.00 | 0.00 | 70 | 1040.8 |
| 20260505205345 | 28 | 180 | 8.0 | 24.1 | 0.00 | 0.00 | 0.00 | 71 | 1040.8 |
| 20260505204842 | 28 | 202 | 9.7 | 25.7 | 0.00 | 0.00 | 0.00 | 70 | 1041.0 |
| 20260505204340 | 28 | 147 | 6.4 | 22.5 | 0.00 | 0.00 | 0.00 | 72 | 1040.9 |
| 20260505203837 | 28 | 144 | 8.0 | 20.9 | 0.00 | 0.00 | 0.00 | 71 | 1041.2 |
| 20260505203333 | 28 | 165 | 6.4 | 27.4 | 0.00 | 0.00 | 0.00 | 72 | 1040.9 |
| 20260505202830 | 28 | 131 | 11.3 | 27.4 | 0.00 | 0.00 | 0.00 | 73 | 1040.9 |
| 20260505202326 | 28 | 180 | 3.2 | 19.3 | 0.00 | 0.00 | 0.00 | 72 | 1041.2 |
| 20260505201823 | 28 | 158 | 8.0 | 19.3 | 0.00 | 0.00 | 0.00 | 71 | 1041.2 |
| 20260505201320 | 28 | 180 | 19.3 | 27.4 | 0.00 | 0.00 | 0.00 | 72 | 1041.5 |
| 20260505200818 | 28 | 199 | 11.3 | 19.3 | 0.00 | 0.00 | 0.00 | 72 | 1041.7 |
| 20260505200315 | 28 | 221 | 11.3 | 24.1 | 0.00 | 0.00 | 0.00 | 72 | 1041.6 |
| 20260505195810 | 28 | 226 | 11.3 | 17.7 | 0.00 | 0.00 | 0.00 | 71 | 1041.6 |
| 20260505195308 | 28 | 218 | 14.5 | 33.8 | 0.00 | 0.00 | 0.00 | 71 | 1041.3 |
| 20260505194805 | 27 | 207 | 11.3 | 27.4 | 0.00 | 0.00 | 0.00 | 72 | 1041.7 |
| 20260505194302 | 27 | 177 | 4.8 | 29.0 | 0.00 | 0.00 | 0.00 | 72 | 1041.9 |
| 20260505193757 | 28 | 222 | 17.7 | 22.5 | 0.00 | 0.00 | 0.00 | 71 | 1041.9 |
| 20260505193255 | 27 | 210 | 11.3 | 24.1 | 0.00 | 0.00 | 0.00 | 71 | 1042.2 |
| 20260505192753 | 27 | 234 | 14.5 | 20.9 | 0.00 | 0.00 | 0.00 | 74 | 1042.1 |
| 20260505192250 | 27 | 213 | 6.4 | 29.0 | 0.00 | 0.00 | 0.00 | 73 | 1042.1 |
| 20260505191748 | 27 | 199 | 6.4 | 16.1 | 0.00 | 0.00 | 0.00 | 73 | 1042.1 |
| 20260505191247 | 27 | 200 | 8.0 | 22.5 | 0.00 | 0.00 | 0.00 | 73 | 1042.1 |
| 20260505190742 | 27 | 202 | 11.3 | 24.1 | 0.00 | 0.00 | 0.00 | 73 | 1042.0 |
| 20260505190237 | 27 | 229 | 14.5 | 22.5 | 0.00 | 0.00 | 0.00 | 73 | 1042.0 |
| 20260505185734 | 26 | 226 | 14.5 | 27.4 | 0.00 | 0.00 | 0.00 | 75 | 1042.3 |
| 20260505185231 | 26 | 215 | 8.0 | 25.7 | 0.00 | 0.00 | 0.00 | 76 | 1042.4 |
| 20260505184726 | 26 | 199 | 9.7 | 17.7 | 0.00 | 0.00 | 0.00 | 77 | 1042.4 |
| 20260505184224 | 26 | 209 | 9.7 | 22.5 | 0.00 | 0.00 | 0.00 | 76 | 1042.4 |
| 20260505183720 | 26 | 222 | 22.5 | 24.1 | 0.00 | 0.00 | 0.00 | 76 | 1042.7 |
| 20260505183218 | 26 | 193 | 17.7 | 27.4 | 0.00 | 0.00 | 0.00 | 77 | 1042.6 |
| 20260505182714 | 26 | 221 | 8.0 | 22.5 | 0.00 | 0.00 | 0.00 | 78 | 1042.7 |
| 20260505182212 | 26 | 208 | 6.4 | 17.7 | 0.00 | 0.00 | 0.00 | 77 | 1042.7 |
| 20260505181708 | 26 | 234 | 8.0 | 20.9 | 0.00 | 0.00 | 0.00 | 77 | 1043.0 |
| 20260505181206 | 25 | 246 | 4.8 | 17.7 | 0.00 | 0.00 | 0.00 | 80 | 1043.0 |
| 20260505180702 | 25 | 185 | 3.2 | 19.3 | 0.00 | 0.00 | 0.00 | 78 | 1043.0 |
| 20260505180159 | 25 | 180 | 4.8 | 11.3 | 0.00 | 0.00 | 0.00 | 81 | 1043.1 |
| 20260505175655 | 25 | 180 | 8.0 | 16.1 | 0.00 | 0.00 | 0.00 | 81 | 1042.9 |
| 20260505175151 | 24 | 228 | 6.4 | 22.5 | 0.00 | 0.00 | 0.00 | 82 | 1043.2 |
| 20260505174648 | 24 | 213 | 9.7 | 24.1 | 0.00 | 0.00 | 0.00 | 82 | 1043.1 |
| 20260505174144 | 25 | 222 | 11.3 | 16.1 | 0.00 | 0.00 | 0.00 | 82 | 1043.2 |
| 20260505173641 | 24 | 230 | 9.7 | 24.1 | 0.00 | 0.00 | 0.00 | 82 | 1043.2 |
| 20260505173138 | 24 | 203 | 11.3 | 30.6 | 0.00 | 0.00 | 0.00 | 83 | 1043.3 |
| 20260505172635 | 24 | 207 | 12.9 | 32.2 | 0.00 | 0.00 | 0.00 | 83 | 1043.1 |
| 20260505172132 | 23 | 246 | 9.7 | 27.4 | 0.00 | 0.00 | 0.00 | 84 | 1043.2 |
| 20260505171626 | 23 | 228 | 12.9 | 20.9 | 0.00 | 0.00 | 0.00 | 84 | 1043.4 |
| 20260505171124 | 23 | 222 | 9.7 | 24.1 | 0.00 | 0.00 | 0.00 | 85 | 1043.3 |
| 20260505170621 | 23 | 220 | 14.5 | 20.9 | 0.00 | 0.00 | 0.00 | 85 | 1043.5 |
| 20260505170117 | 23 | 240 | 4.8 | 17.7 | 0.00 | 0.00 | 0.00 | 85 | 1043.4 |
| 20260505165612 | 23 | 217 | 11.3 | 24.1 | 0.00 | 0.00 | 0.00 | 85 | 1043.4 |
| 20260505165108 | 23 | 235 | 9.7 | 19.3 | 0.00 | 0.00 | 0.00 | 86 | 1043.3 |
| 20260505164604 | 23 | 212 | 11.3 | 22.5 | 0.00 | 0.00 | 0.00 | 86 | 1043.4 |
| 20260505164102 | 23 | 244 | 8.0 | 22.5 | 0.00 | 0.00 | 0.00 | 86 | 1043.3 |
| 20260505163600 | 22 | 227 | 11.3 | 27.4 | 0.00 | 0.00 | 0.00 | 87 | 1043.5 |
| 20260505163057 | 22 | 240 | 9.7 | 17.7 | 0.00 | 0.00 | 0.00 | 88 | 1043.3 |
| 20260505162555 | 22 | 216 | 11.3 | 19.3 | 0.00 | 0.00 | 0.00 | 88 | 1043.5 |
| 20260505162052 | 22 | 219 | 12.9 | 17.7 | 0.00 | 0.00 | 0.00 | 89 | 1043.6 |
| 20260505161549 | 22 | 219 | 16.1 | 29.0 | 0.00 | 0.00 | 0.00 | 89 | 1043.5 |
| 20260505161047 | 22 | 192 | 11.3 | 17.7 | 0.00 | 0.00 | 0.00 | 89 | 1043.4 |
| 20260505160544 | 22 | 216 | 8.0 | 16.1 | 0.00 | 0.00 | 0.00 | 89 | 1043.4 |
| 20260505153021 | 22 | 270 | 8.0 | 14.5 | 0.00 | 0.00 | 0.00 | 90 | 1043.5 |
| 20260505152518 | 22 | 227 | 4.8 | 11.3 | 0.00 | 0.00 | 0.00 | 90 | 1043.5 |
| 20260505152013 | 21 | 215 | 11.3 | 14.5 | 0.00 | 0.00 | 0.00 | 90 | 1043.3 |
| 20260505151508 | 21 | 273 | 4.8 | 17.7 | 0.00 | 0.00 | 0.00 | 90 | 1043.4 |
| 20260505151006 | 21 | 225 | 11.3 | 20.9 | 0.00 | 0.00 | 0.00 | 90 | 1043.3 |
| 20260505150502 | 21 | 209 | 8.0 | 22.5 | 0.00 | 0.00 | 0.00 | 90 | 1043.3 |
| 20260505090621 | 21 | 223 | 8.0 | 27.4 | 0.00 | 0.00 | 0.00 | 90 | 1042.0 |
| 20260505090119 | 21 | 223 | 8.0 | 27.4 | 0.00 | 0.00 | 0.00 | 90 | 1042.0 |
| 20260505085616 | 21 | 202 | 19.3 | 27.4 | 0.00 | 0.00 | 0.00 | 90 | 1042.0 |
| 20260505085115 | 21 | 214 | 6.4 | 20.9 | 0.00 | 0.00 | 0.00 | 90 | 1042.2 |
| 20260505084612 | 21 | 227 | 16.1 | 20.9 | 0.00 | 0.00 | 0.00 | 89 | 1042.1 |
| 20260505084110 | 21 | 221 | 17.7 | 17.7 | 0.00 | 0.00 | 0.00 | 89 | 1042.2 |
| 20260505083608 | 21 | 239 | 12.9 | 24.1 | 0.00 | 0.00 | 0.00 | 89 | 1042.6 |
| 20260505083104 | 21 | 221 | 17.7 | 24.1 | 0.00 | 0.00 | 0.00 | 89 | 1042.0 |
| 20260505082559 | 21 | 209 | 16.1 | 27.4 | 0.00 | 0.00 | 0.00 | 89 | 1042.2 |
| 20260505082057 | 21 | 232 | 11.3 | 20.9 | 0.00 | 0.00 | 0.00 | 89 | 1042.5 |
| 20260505081553 | 21 | 218 | 14.5 | 24.1 | 0.00 | 0.00 | 0.00 | 89 | 1042.5 |
| 20260505081050 | 21 | 197 | 17.7 | 22.5 | 0.00 | 0.00 | 0.00 | 89 | 1042.4 |
| 20260505080546 | 21 | 216 | 12.9 | 22.5 | 0.00 | 0.00 | 0.00 | 88 | 1042.6 |
| 20260505080043 | 21 | 216 | 6.4 | 19.3 | 0.00 | 0.00 | 0.00 | 88 | 1042.5 |
| 20260505075539 | 21 | 220 | 8.0 | 30.6 | 0.00 | 0.00 | 0.00 | 88 | 1042.5 |
| 20260505075036 | 21 | 196 | 22.5 | 35.4 | 0.00 | 0.00 | 0.00 | 88 | 1042.4 |
| 20260505074533 | 21 | 222 | 19.3 | 33.8 | 0.00 | 0.00 | 0.00 | 88 | 1042.6 |
| 20260505074030 | 21 | 228 | 16.1 | 27.4 | 0.00 | 0.00 | 0.00 | 88 | 1042.7 |
| 20260505073527 | 21 | 228 | 11.3 | 25.7 | 0.00 | 0.00 | 0.00 | 88 | 1042.8 |
| 20260505073026 | 21 | 180 | 14.5 | 24.1 | 0.00 | 0.00 | 0.00 | 88 | 1042.7 |
| 20260505072521 | 21 | 233 | 6.4 | 22.5 | 0.00 | 0.00 | 0.00 | 88 | 1042.7 |
| 20260505072018 | 21 | 184 | 17.7 | 33.8 | 0.00 | 0.00 | 0.00 | 88 | 1043.0 |
| 20260505071513 | 21 | 185 | 4.8 | 25.7 | 0.00 | 0.00 | 0.00 | 88 | 1043.0 |
| 20260505071012 | 21 | 228 | 22.5 | 30.6 | 0.00 | 0.00 | 0.00 | 88 | 1043.1 |
| 20260505070509 | 21 | 179 | 9.7 | 25.7 | 0.00 | 0.00 | 0.00 | 88 | 1043.1 |
| 20260505070005 | 21 | 209 | 16.1 | 25.7 | 0.00 | 0.00 | 0.00 | 88 | 1043.1 |
| 20260505065501 | 21 | 206 | 19.3 | 35.4 | 0.00 | 0.00 | 0.00 | 88 | 1043.4 |
| 20260505064957 | 21 | 212 | 20.9 | 29.0 | 0.00 | 0.00 | 0.00 | 88 | 1043.4 |
| 20260505064454 | 21 | 240 | 19.3 | 33.8 | 0.00 | 0.00 | 0.00 | 88 | 1043.3 |
| 20260505063953 | 21 | 200 | 6.4 | 25.7 | 0.00 | 0.00 | 0.00 | 88 | 1043.5 |
| 20260505063449 | 21 | 210 | 14.5 | 25.7 | 0.00 | 0.00 | 0.00 | 87 | 1043.5 |
| 20260505062945 | 21 | 245 | 6.4 | 33.8 | 0.00 | 0.00 | 0.00 | 87 | 1043.6 |
| 20260505062442 | 21 | 138 | 0.0 | 25.7 | 0.00 | 0.00 | 0.00 | 87 | 1043.5 |
| 20260505061939 | 21 | 203 | 9.7 | 32.2 | 0.00 | 0.00 | 0.00 | 87 | 1043.8 |
| 20260505061437 | 21 | 204 | 12.9 | 25.7 | 0.00 | 0.00 | 0.00 | 87 | 1043.6 |
| 20260505060935 | 21 | 180 | 8.0 | 25.7 | 0.00 | 0.00 | 0.00 | 86 | 1043.7 |
| 20260505060432 | 21 | 219 | 24.1 | 38.6 | 0.00 | 0.00 | 0.00 | 86 | 1043.6 |
| 20260505055928 | 21 | 218 | 4.8 | 22.5 | 0.00 | 0.00 | 0.00 | 86 | 1043.6 |
| 20260505055424 | 21 | 168 | 1.6 | 22.5 | 0.00 | 0.00 | 0.00 | 86 | 1043.8 |
| 20260505054921 | 21 | 185 | 17.7 | 27.4 | 0.00 | 0.00 | 0.00 | 86 | 1043.6 |
| 20260505054418 | 21 | 213 | 14.5 | 35.4 | 0.00 | 0.00 | 0.00 | 86 | 1043.6 |
| 20260505053916 | 21 | 186 | 8.0 | 22.5 | 0.00 | 0.00 | 0.00 | 86 | 1043.5 |
| 20260505053413 | 21 | 163 | 11.3 | 27.4 | 0.00 | 0.00 | 0.00 | 86 | 1043.7 |
| 20260505052910 | 21 | 281 | 4.8 | 27.4 | 0.00 | 0.00 | 0.00 | 86 | 1043.7 |
| 20260505052406 | 21 | 217 | 11.3 | 27.4 | 0.00 | 0.00 | 0.00 | 86 | 1043.5 |
| 20260505051904 | 21 | 213 | 17.7 | 24.1 | 0.00 | 0.00 | 0.00 | 86 | 1043.5 |
| 20260505051401 | 21 | 218 | 8.0 | 29.0 | 0.00 | 0.00 | 0.00 | 86 | 1043.5 |
| 20260505050859 | 21 | 227 | 9.7 | 27.4 | 0.00 | 0.00 | 0.00 | 86 | 1043.7 |
| 20260505050357 | 21 | 184 | 30.6 | 37.0 | 0.00 | 0.00 | 0.00 | 86 | 1043.3 |